SCP
-0 -0 -0 -0 -0 -0 -0 0 0 0 0 0 0 0 0 0 0 0 0 0 0 0 0 0 0 0 0 0 0 0 0 0
-0 -0 -0 -0 -0 -0 -0 -0 -0 0 0 0 0 0 0 0 0 0 0 0 0 0 0 0 0 0 0 0 0 0 0 0
-0 -0 -0 -0 -0 -0 -0 -0 -0 0 0 0 0 0 0 0 0 0 0 0 0 0 0 0 0 0 0 0 0 0 0 0
-0 -0 -0 -0 -0 -0 -0 -0 -0 -0 0 0 0 -0 0 0 0 0 0 0 -0 0 0 0 0 0 0 0 0 0 0 0
-0 -0 -0 -0 -0 -0 -0 -0 -0 -0 -0 0 0 0 0 0 0 0 0 0 0 0 0 0 0 0 -0 0 0 0 0 0
-0 -0 -0 -0 -0 -0 -0 -0 -0 -0 -0 0 0 0 0 0 0 0 0 0 0 0 0 0 0 -0 0 0 0 0 0 0
-0 -0 -0 -0 -0 -0 -0 -0 -0 -0 -0 0 0 0 0 0 0 0 0 0 0 0 0 0 0 -0 0 0 0 0 -0 -0
-0 -0 -0 -0 -0 -0 -0 -0 -0 -0 -0 -0 0 0 0 0 0 0 0 0 0 0 0 0 0 -0 -0 0 0 0 0 -0
-0 -0 -0 -0 -0 -0 -0 -0 -0 -0 -0 -0 0 0 0 0 0 0 0 0 0 0 0 0 0 0 -0 0 0 0 0 -0
-0 -0 -0 0 -0 -0 -0 -0 -0 -0 -0 -0 -0 -0 0 0 0 0 0 0 0 0 0 0 0 0 0 0 0 0 0 0
-0 -0 0 -0 -0 -0 -0 -0 -0 -0 0 -0 -0 -0 -0 -0 0 0 0 0 0 0 0 0 0 0 0 0 -0 0 0 0
-0 0 0 -0 -0 -0 -0 -0 -0 -0 0 0 0 0 0 -0 0 0 0 0 0 0 0 0 0 -0 -0 -0 -0 -0 0 0
-0 0 0 -0 0 -0 -0 0 -0 -0 0 0 0 0 0 0 0 0 0 0 0 0 0 0 -0 0 0 -0 -0 0 0 0
0 0 0 0 0 0 -0 -0 0 -0 0 0 0 0 0 0 0 0 0 0 0 -0 -0 -0 -0 -0 -0 -0 -0 -0 -0 -0
0 0 0 0 0 0 0 0 0 0 0 0 0 0 0 0 0 0 0 0 0 -0 0 -0 -0 -0 -0 -0 -0 -0 -0 0
0 0 0 0 0 0 0 0 0 0 0 0 0 0 0 0 0 0 0 0 0 0 -0 -0 -0 0 -0 -0 -0 0 0 0
0 0 0 0 0 0 0 0 0 0 0 0 0 0 0 0 0 0 0 0 0 0 0 0 0 0 0 0 -0 0 0 0
0 0 0 0 0 0 0 0 0 0 0 0 0 0 0 0 0 0 0 0 0 0 0 0 0 0 0 0 0 0 0 0
0 0 0 0 0 0 0 0 0 0 0 0 0 0 0 0 0 0 0 0 0 0 0 0 0 0 0 0 0 0 0 0
1 1 0 0 0 0 0 0 0 0 0 0 0 0 0 0 0 0 0 0 0 0 0 0 0 0 0 0 0 0 0 0
Wind_Speed_500mb
66 62 55 49 46 34 28 33 28 23 18 22 15 7 5 10 15 12 16 20 24 28 32 33 37 36 30 28 28 32 29 27
74 67 58 52 46 36 29 36 32 25 23 25 17 7 17 15 16 19 23 27 28 32 29 31 33 30 29 32 32 30 27 22
78 72 63 53 50 39 34 36 36 30 29 23 20 22 28 17 26 26 30 34 28 31 34 33 29 25 26 29 31 23 21 25
79 73 67 58 55 46 40 36 39 36 32 21 31 29 23 21 26 23 28 30 25 24 31 28 22 20 21 24 32 19 27 40
82 77 72 60 58 50 47 40 43 41 32 25 37 30 27 27 23 21 22 22 20 20 26 25 25 25 25 32 30 27 35 40
84 80 75 62 55 52 46 45 48 45 37 30 39 38 36 28 28 24 21 16 12 14 25 29 30 29 28 33 36 30 34 40
84 78 75 66 60 56 54 55 52 51 43 36 37 47 44 35 29 28 23 23 9 15 20 27 32 32 34 37 38 36 40 39
85 82 80 69 66 64 61 61 60 58 46 38 34 50 45 40 38 30 30 24 14 25 25 25 32 34 34 33 34 35 38 39
82 83 81 75 72 72 67 66 65 55 41 41 42 39 46 44 41 36 32 30 22 26 30 33 35 30 31 30 33 34 33 33
84 85 83 80 76 76 73 71 61 54 43 46 49 43 46 41 42 36 31 34 36 32 29 36 38 37 33 32 31 31 27 27
87 85 85 84 82 77 74 67 62 57 53 50 53 50 50 50 44 43 36 27 46 41 41 31 40 48 43 39 34 31 27 29
90 86 85 87 88 81 65 64 62 61 58 54 53 59 56 53 47 44 41 38 37 52 44 45 35 42 54 52 45 38 34 31
89 85 85 87 83 82 74 66 68 69 63 60 59 65 59 58 51 48 44 38 35 49 53 43 47 41 46 51 52 46 34 36
88 83 85 83 79 78 74 70 73 71 73 68 65 74 66 62 56 51 46 33 28 35 42 42 39 31 32 44 52 51 43 44
84 84 84 81 83 80 75 74 75 73 79 74 69 79 74 67 62 53 49 46 38 39 49 41 33 28 34 37 44 55 54 51
77 78 86 82 83 80 75 76 76 76 79 78 76 75 82 72 63 55 49 47 46 49 53 50 43 40 40 39 38 56 67 63
82 77 77 80 82 76 73 74 76 78 81 86 81 78 79 78 67 60 53 49 50 54 52 57 55 47 48 49 51 59 74 75
71 77 69 66 70 66 66 72 75 74 76 84 87 84 80 82 75 66 59 52 52 55 59 57 61 60 54 58 64 66 68 74
69 59 57 61 57 54 56 65 72 73 73 81 89 86 79 81 79 71 63 56 54 56 59 58 62 68 68 64 65 74 72 67
47 52 57 54 64 65 66 60 55 72 76 75 85 88 80 78 79 75 70 63 60 57 51 55 59 64 69 75 73 76 75 77
Wind_Direction_500mb
179 179 184 186 189 185 182 186 190 185 173 169 155 178 94 87 69 69 135 129 126 127 141 145 149 155 160 164 154 145 153 161
179 182 188 189 191 189 181 182 188 183 186 175 174 157 122 103 83 91 134 134 126 133 138 147 151 156 163 167 168 157 156 153
184 186 190 193 192 190 184 182 186 187 188 179 166 143 124 110 99 94 117 129 125 137 144 147 157 160 173 179 186 187 189 178
190 191 191 193 194 189 184 181 188 191 189 178 160 149 158 143 115 96 125 134 131 145 157 160 161 163 172 174 170 158 157 150
194 196 195 193 195 191 186 183 188 190 191 180 169 164 156 146 143 133 117 118 114 119 148 160 156 143 152 157 155 156 150 146
199 198 198 195 193 192 186 185 191 190 190 186 174 171 169 162 164 174 164 135 111 136 141 154 152 140 146 141 142 146 148 146
200 201 200 193 192 190 187 187 193 192 190 189 179 176 177 178 170 167 169 159 134 153 144 145 153 151 151 144 144 139 144 147
201 203 202 194 192 190 187 190 194 195 194 192 187 185 185 187 191 185 172 175 165 167 163 153 148 144 151 157 156 156 156 158
205 204 202 197 192 190 191 192 197 200 197 194 194 184 187 191 188 192 201 193 184 168 173 171 169 162 153 152 160 160 157 156
204 205 204 199 194 192 194 197 197 198 194 195 200 191 185 191 194 198 197 204 193 185 177 180 182 181 178 178 184 186 184 179
202 206 203 202 196 196 198 200 194 194 194 194 201 197 193 196 193 198 204 206 199 195 196 193 190 192 192 196 195 195 197 207
199 201 204 202 199 201 204 198 193 195 197 197 202 198 197 201 203 205 211 211 207 201 207 209 206 201 205 206 206 203 204 197
194 199 205 204 201 203 203 200 194 196 199 201 205 202 199 200 207 210 217 228 227 210 210 213 212 216 211 209 209 207 203 193
193 201 207 206 202 205 203 201 199 197 198 202 207 204 204 205 207 211 217 225 227 226 222 221 225 232 225 212 211 211 209 199
198 204 207 207 205 206 206 202 203 204 202 204 209 208 207 207 209 212 212 211 215 214 212 214 217 211 205 207 210 211 212 210
200 203 205 204 206 207 208 205 207 209 210 208 209 212 212 212 214 217 219 218 211 202 201 202 205 210 210 209 210 212 212 214
197 203 202 204 206 209 210 207 209 212 214 212 213 215 218 217 218 221 224 224 222 213 204 204 207 217 220 219 224 223 216 217
192 197 197 197 203 208 211 211 211 212 217 218 217 219 219 218 219 222 224 228 226 222 216 213 213 215 219 221 224 224 224 223
179 193 199 205 207 204 209 213 214 214 213 218 222 222 224 223 221 222 228 230 228 228 226 223 222 221 222 221 223 225 227 226
178 194 200 207 213 212 211 211 215 220 215 216 221 225 225 223 224 228 228 232 232 232 231 230 228 231 232 232 230 229 229 234
Wind_Speed_850mb
66 62 55 49 46 34 28 33 28 23 18 22 15 7 5 10 15 12 16 20 24 28 32 33 37 36 30 28 28 32 29 27
74 67 58 52 46 36 29 36 32 25 23 25 17 7 17 15 16 19 23 27 28 32 29 31 33 30 29 32 32 30 27 22
78 72 63 53 50 39 34 36 36 30 29 23 20 22 28 17 26 26 30 34 28 31 34 33 29 25 26 29 31 23 21 25
79 73 67 58 55 46 40 36 39 36 32 21 31 29 23 21 26 23 28 30 25 24 31 28 22 20 21 24 32 19 27 40
82 77 72 60 58 50 47 40 43 41 32 25 37 30 27 27 23 21 22 22 20 20 26 25 25 25 25 32 30 27 35 40
84 80 75 62 55 52 46 45 48 45 37 30 39 38 36 28 28 24 21 16 12 14 25 29 30 29 28 33 36 30 34 40
84 78 75 66 60 56 54 55 52 51 43 36 37 47 44 35 29 28 23 23 9 15 20 27 32 32 34 37 38 36 40 39
85 82 80 69 66 64 61 61 60 58 46 38 34 50 45 40 38 30 30 24 14 25 25 25 32 34 34 33 34 35 38 39
82 83 81 75 72 72 67 66 65 55 41 41 42 39 46 44 41 36 32 30 22 26 30 33 35 30 31 30 33 34 33 33
84 85 83 80 76 76 73 71 61 54 43 46 49 43 46 41 42 36 31 34 36 32 29 36 38 37 33 32 31 31 27 27
87 85 85 84 82 77 74 67 62 57 53 50 53 50 50 50 44 43 36 27 46 41 41 31 40 48 43 39 34 31 27 29
90 86 85 87 88 81 65 64 62 61 58 54 53 59 56 53 47 44 41 38 37 52 44 45 35 42 54 52 45 38 34 31
89 85 85 87 83 82 74 66 68 69 63 60 59 65 59 58 51 48 44 38 35 49 53 43 47 41 46 51 52 46 34 36
88 83 85 83 79 78 74 70 73 71 73 68 65 74 66 62 56 51 46 33 28 35 42 42 39 31 32 44 52 51 43 44
84 84 84 81 83 80 75 74 75 73 79 74 69 79 74 67 62 53 49 46 38 39 49 41 33 28 34 37 44 55 54 51
77 78 86 82 83 80 75 76 76 76 79 78 76 75 82 72 63 55 49 47 46 49 53 50 43 40 40 39 38 56 67 63
82 77 77 80 82 76 73 74 76 78 81 86 81 78 79 78 67 60 53 49 50 54 52 57 55 47 48 49 51 59 74 75
71 77 69 66 70 66 66 72 75 74 76 84 87 84 80 82 75 66 59 52 52 55 59 57 61 60 54 58 64 66 68 74
69 59 57 61 57 54 56 65 72 73 73 81 89 86 79 81 79 71 63 56 54 56 59 58 62 68 68 64 65 74 72 67
47 52 57 54 64 65 66 60 55 72 76 75 85 88 80 78 79 75 70 63 60 57 51 55 59 64 69 75 73 76 75 77
Wind_Direction_850mb
179 179 184 186 189 185 182 186 190 185 173 169 155 178 94 87 69 69 135 129 126 127 141 145 149 155 160 164 154 145 153 161
179 182 188 189 191 189 181 182 188 183 186 175 174 157 122 103 83 91 134 134 126 133 138 147 151 156 163 167 168 157 156 153
184 186 190 193 192 190 184 182 186 187 188 179 166 143 124 110 99 94 117 129 125 137 144 147 157 160 173 179 186 187 189 178
190 191 191 193 194 189 184 181 188 191 189 178 160 149 158 143 115 96 125 134 131 145 157 160 161 163 172 174 170 158 157 150
194 196 195 193 195 191 186 183 188 190 191 180 169 164 156 146 143 133 117 118 114 119 148 160 156 143 152 157 155 156 150 146
199 198 198 195 193 192 186 185 191 190 190 186 174 171 169 162 164 174 164 135 111 136 141 154 152 140 146 141 142 146 148 146
200 201 200 193 192 190 187 187 193 192 190 189 179 176 177 178 170 167 169 159 134 153 144 145 153 151 151 144 144 139 144 147
201 203 202 194 192 190 187 190 194 195 194 192 187 185 185 187 191 185 172 175 165 167 163 153 148 144 151 157 156 156 156 158
205 204 202 197 192 190 191 192 197 200 197 194 194 184 187 191 188 192 201 193 184 168 173 171 169 162 153 152 160 160 157 156
204 205 204 199 194 192 194 197 197 198 194 195 200 191 185 191 194 198 197 204 193 185 177 180 182 181 178 178 184 186 184 179
202 206 203 202 196 196 198 200 194 194 194 194 201 197 193 196 193 198 204 206 199 195 196 193 190 192 192 196 195 195 197 207
199 201 204 202 199 201 204 198 193 195 197 197 202 198 197 201 203 205 211 211 207 201 207 209 206 201 205 206 206 203 204 197
194 199 205 204 201 203 203 200 194 196 199 201 205 202 199 200 207 210 217 228 227 210 210 213 212 216 211 209 209 207 203 193
193 201 207 206 202 205 203 201 199 197 198 202 207 204 204 205 207 211 217 225 227 226 222 221 225 232 225 212 211 211 209 199
198 204 207 207 205 206 206 202 203 204 202 204 209 208 207 207 209 212 212 211 215 214 212 214 217 211 205 207 210 211 212 210
200 203 205 204 206 207 208 205 207 209 210 208 209 212 212 212 214 217 219 218 211 202 201 202 205 210 210 209 210 212 212 214
197 203 202 204 206 209 210 207 209 212 214 212 213 215 218 217 218 221 224 224 222 213 204 204 207 217 220 219 224 223 216 217
192 197 197 197 203 208 211 211 211 212 217 218 217 219 219 218 219 222 224 228 226 222 216 213 213 215 219 221 224 224 224 223
179 193 199 205 207 204 209 213 214 214 213 218 222 222 224 223 221 222 228 230 228 228 226 223 222 221 222 221 223 225 227 226
178 194 200 207 213 212 211 211 215 220 215 216 221 225 225 223 224 228 228 232 232 232 231 230 228 231 232 232 230 229 229 234